Other Public Products
Issued by NWS Charleston, SC

Current Version | Previous Version | Text Only | Print | Product List | Glossary Off
Versions: 1 2 3 4 5 6 7 8 9 10 11 12 13 14 15 16 17 18 19 20 21 22 23 24 25 26 27 28 29 30 31 32 33 34 35 36 37 38 39 40 41 42 43 44 45 46 47 48 49 50

000
FPUS82 KCHS 201327
OPUCHS

TEST...KCHS/KSAV Gateway Observations...TEST
National Weather Service Charleston SC
900 AM EDT THU JUL 20 2017

NOTE: "fair" indicates few or no clouds below 12,000 feet with no
significant weather and/or obstructions to visibility.

SCZ050-WAZ558-NCZ071-TXZ119-213-PAZ071-DCZ001-FLZ074-172-MI076-
NYZ176-178-MAZ016-IL014-TNZ027-NJZ106-GAZ044-MD014-201400-

...Gateway Observations for Charleston International...

CITY           SKY/WX    TMP DP  RH WIND       PRES   REMARKS
Chas Airport   MOSUNNY   80  75  84 W6        30.09R
Seattle        MOCLDY    60  53  77 S8        30.09R
Charlotte      MOSUNNY   80  72  76 NW3       30.11R
Dallas DFW     SUNNY     84  74  71 S13       30.10S HX  91
Dallas Love    MOSUNNY   84  73  69 SW8       30.12R HX  90
Philladelphia  PTSUNNY   84  72  67 VRB5      30.00S
Wash National  PTSUNNY   87  74  64 N7        30.03R HX  95
Baltimore      PTSUNNY   86  74  67 CALM      30.02R HX  94
Miami          PTSUNNY   86  76  71 S3        30.10R HX  96
Detroit        CLOUDY    78  71  79 W10       29.99S
Newark         PTSUNNY   83  71  67 W5        29.98R
Laguardia      PTSUNNY   83  71  67 NE5       29.97S
J F K          PTSUNNY   83  76  79 SW7       29.99S HX  91
Boston Logan   MOSUNNY   83  65  54 W6        29.95F
Ft. Lauderdale PTSUNNY   81  78  91 CALM      30.09R
Chicago O`Hare RAIN      69  67  93 E15       30.01F
Chicago Midway TSTM      71  70  96 E15       30.05F FOG
Houston Bush   MOSUNNY   83  77  82 W3        30.13R HX  92
Houston Hobby  MOSUNNY   83  77  82 W3        30.13R HX  92
Nashville      MOSUNNY   83  73  72 CALM      30.14R
Atlanta        MOSUNNY   80  71  74 NW8       30.13R

$$

GAZ044-118-TXZ119-213-NCZ071-DCZ001-MDZ014-506-PAZ021-071-NJZ106-
NYZ176-178-MAZ106-OHZ011-021-055-MIZ076-KYZ091-ILZ014-INZ047-
MNZ060-ONZ431-201400-

...Gateway Observations for Savannah International...

CITY           SKY/WX    TMP DP  RH WIND       PRES   REMARKS
Savannah Arpt  MOSUNNY   80  76  87 W3        30.09R
Atlanta        MOSUNNY   80  71  74 NW8       30.13R
Charlotte      MOSUNNY   80  72  76 NW3       30.11R
Dallas DFW     SUNNY     84  74  71 S13       30.10S HX  91
Houston Bush   MOSUNNY   83  77  82 W3        30.13R HX  92
Wash National  PTSUNNY   87  74  64 N7        30.03R HX  95
Wash Dulles    PTSUNNY   84  70  62 NW3       30.04R
Baltimore      PTSUNNY   86  74  67 CALM      30.02R HX  94
Philadelphia   PTSUNNY   84  72  67 VRB5      30.00S
Newark         PTSUNNY   83  71  67 W5        29.98R
Laguardia      PTSUNNY   83  71  67 NE5       29.97S
J F K          PTSUNNY   83  76  79 SW7       29.99S HX  91
Boston         MOSUNNY   83  65  54 W6        29.95F
Pittsburg      CLOUDY    77  70  79 W6        30.09R
Akron          CLOUDY    78  68  71 SW6       30.09R
Cleveland      PTSUNNY   80  71  74 SW9       30.04F
Cincinnati     CLOUDY    77  73  87 SW5       30.13R
Columbus       CLOUDY    75  71  89 SW6       30.10R
Detroit        CLOUDY    78  71  79 W10       29.99S
Chicago O`Hare RAIN      69  67  93 E15       30.01F
Minneapolis    CLOUDY    72  68  87 CALM      30.00S FOG
Indianapolis   CLOUDY    77  72  84 S7        30.08R
Toronto Canada PTSUNNY   70  57  64 SE5       29.97F

$$




USA.gov is the U.S. government's official web portal to all federal, state and local government web resources and services.